Torna al catalogo

COSMOS 2528 DEB

AttivoLEO
NORAD 45037·DEBRIS·🇷🇺 Russia

Lanciato Oct 25, 2018 da Plesetsk Cosmodrome

Loading…

Prossimi Passaggi (prossime 24 ore)

TLE

AggiornatoSource: Space-Track

Epoca: Sep 14, 2026, 08:12 UTC

1 45037U 18082C   26257.34175103  .00000713  00000-0  53837-3 0  9994
2 45037  67.2255 243.7648 0016286 282.0835  77.8427 13.99632123339215

Traccia COSMOS 2528 DEB in tempo reale con AllMySat

Download on the App Store